FW9441 Weather Reports


time (UTC)temp
F
wind
direction
speed
knots
gust
knots
rain 1hr
in
rain 24hr
in
rain mn
in
humidity
%
barometer
mb
20260505223052 69 246 1.7 5.2 0.00 0.00 0.00 70 1015.4
20260505221538 68 283 2.6 6.1 0.00 0.00 0.00 70 1015.5
20260505220042 68 276 2.6 7.0 0.00 0.00 0.00 70 1015.6
20260505214535 69 290 1.7 9.6 0.00 0.00 0.00 69 1015.6
20260505213049 69 85 1.7 8.7 0.00 0.00 0.00 70 1015.6
20260505211537 69 240 2.6 6.1 0.00 0.00 0.00 70 1015.6
20260505210038 69 216 2.6 7.0 0.00 0.00 0.00 65 1015.5
20260505204537 69 215 2.6 5.2 0.00 0.00 0.00 65 1015.6
20260505203044 69 233 3.5 7.8 0.00 0.00 0.00 65 1015.7
20260505201538 69 191 1.7 6.1 0.00 0.00 0.00 65 1015.8
20260505200036 68 281 0.9 5.2 0.00 0.00 0.00 71 1015.8
20260505194533 67 76 1.7 5.2 0.00 0.00 0.00 68 1015.8
20260505193037 65 79 1.7 3.5 0.00 0.00 0.00 71 1015.7
20260505191537 66 253 0.0 5.2 0.00 0.00 0.00 76 1015.9
20260505190037 64 0 1.7 5.2 0.00 0.00 0.00 73 1015.9
20260505184540 64 25 0.0 3.5 0.00 0.00 0.00 73 1015.9
20260505183038 63 249 0.9 4.3 0.00 0.00 0.00 77 1015.9
20260505181539 63 217 0.9 3.5 0.00 0.00 0.00 75 1015.9
20260505180038 62 98 0.0 1.7 0.00 0.00 0.00 76 1015.9
20260505174535 61 0 0.0 0.9 0.00 0.00 0.00 76 1015.9
20260505173045 60 231 0.9 3.5 0.00 0.00 0.00 80 1016.0
20260505171538 60 0 0.0 1.7 0.00 0.00 0.00 80 1015.8
20260505170039 59 355 0.0 0.9 0.00 0.00 0.00 81 1015.8
20260505164548 59 257 0.0 1.7 0.00 0.00 0.00 82 1015.9
20260505163036 58 0 0.0 2.6 0.00 0.00 0.00 84 1016.0
20260505161534 58 256 0.0 0.9 0.00 0.00 0.00 85 1016.0
20260505153049 56 0 0.0 0.0 0.00 0.00 0.00 90 1016.1
20260505151543 55 0 0.0 0.0 0.00 0.00 0.00 93 1016.1
20260505124544 53 0 0.0 0.0 0.00 0.00 0.00 97 1015.5
20260505123041 53 0 0.0 0.0 0.00 0.00 0.00 97 1015.4
20260505121539 53 0 0.0 0.0 0.00 0.00 0.00 97 1015.4
20260505120038 53 0 0.0 0.0 0.00 0.00 0.00 97 1015.5
20260505114544 53 0 0.0 0.0 0.00 0.00 0.00 97 1015.3
20260505113036 53 0 0.0 0.0 0.00 0.00 0.00 96 1015.2
20260505111550 53 0 0.0 0.0 0.00 0.00 0.00 96 1015.1
20260505101535 53 0 0.0 0.0 0.00 0.00 0.00 96 1014.8
20260505100042 53 0 0.0 0.0 0.00 0.00 0.00 96 1014.7
20260505094531 53 0 0.0 0.0 0.00 0.00 0.00 95 1014.9
20260505093039 54 0 0.0 0.0 0.00 0.00 0.00 95 1015.0
20260505091551 54 0 0.0 0.0 0.00 0.00 0.00 95 1015.0
20260505090051 54 0 0.0 0.0 0.00 0.00 0.00 95 1015.1
20260505084538 54 0 0.0 0.0 0.00 0.00 0.00 95 1015.1
20260505083042 54 0 0.0 0.0 0.00 0.00 0.00 95 1015.1
20260505081552 54 0 0.0 0.0 0.00 0.00 0.00 95 1015.1
20260505080045 54 0 0.0 0.0 0.00 0.00 0.00 94 1015.3
20260505074552 54 0 0.0 0.0 0.00 0.00 0.00 94 1015.4
20260505073037 54 0 0.0 0.0 0.00 0.00 0.00 94 1015.4
20260505071536 54 0 0.0 0.0 0.00 0.00 0.00 94 1015.4
20260505070036 54 0 0.0 0.0 0.00 0.00 0.00 93 1015.4
20260505064538 54 0 0.0 0.0 0.00 0.00 0.00 93 1015.5
20260505063042 54 0 0.0 0.0 0.00 0.00 0.00 93 1015.4
20260505061555 55 0 0.0 0.0 0.00 0.00 0.00 92 1015.4
20260505060037 55 0 0.0 0.0 0.00 0.00 0.00 92 1015.5
20260505054536 55 0 0.0 0.0 0.00 0.00 0.00 91 1015.4
20260505053034 55 0 0.0 0.0 0.00 0.00 0.00 91 1015.3
20260505051538 55 0 0.0 0.0 0.00 0.00 0.00 90 1015.4
20260505041538 56 0 0.0 0.9 0.00 0.00 0.00 88 1015.0
20260505040038 56 255 0.0 1.7 0.00 0.00 0.00 87 1014.8
20260505034537 56 0 0.0 1.7 0.00 0.00 0.00 87 1014.6
20260505033046 56 164 0.9 4.3 0.00 0.00 0.00 87 1014.5
20260505031535 57 0 0.0 1.7 0.00 0.00 0.00 87 1014.3
20260505030039 57 268 0.9 3.5 0.00 0.00 0.00 86 1014.1
20260505024602 57 0 0.0 1.7 0.00 0.00 0.00 85 1014.2
20260505023040 58 34 0.0 1.7 0.00 0.00 0.00 85 1014.0
20260505021546 58 221 0.9 3.5 0.00 0.00 0.00 85 1013.9
20260505020044 58 206 0.0 4.3 0.00 0.00 0.00 84 1013.8
20260505014538 58 313 0.0 3.5 0.00 0.00 0.00 84 1013.8
20260505013038 59 226 0.9 1.7 0.00 0.00 0.00 84 1013.8
20260505011548 59 307 0.9 3.5 0.00 0.00 0.00 82 1014.0
20260505010039 59 344 0.9 3.5 0.00 0.00 0.00 82 1014.0
20260505004542 59 16 0.9 3.5 0.00 0.00 0.00 82 1014.0
20260505003032 59 281 0.0 3.5 0.00 0.00 0.00 83 1014.1
20260505001538 60 304 0.9 2.6 0.00 0.00 0.00 82 1014.3
20260505000039 60 327 0.9 3.5 0.00 0.00 0.00 81 1014.3
20260504234537 60 0 0.9 2.6 0.00 0.00 0.00 83 1014.4
20260504233050 60 251 1.7 5.2 0.00 0.00 0.00 82 1014.4
20260504231535 60 232 1.7 6.1 0.00 0.00 0.00 82 1014.7
20260504230035 61 256 1.7 3.5 0.00 0.00 0.00 82 1014.6